Olympia, WA
on Sunday, February 24, 2013

Sunday
Previous Day Next Day
Daily Summary
 ActualAverageRecord
Temperature
Mean Temperature °F 42°F  
Max Temperature 49°F 51°F 65°F (2005)
Min Temperature 38°F 33°F 15°F (1962)
Degree Days
Heating Degree Days 21 23  
Month to date heating degree days 563 575  
Since 1 July heating degree days 3601 3626  
Cooling Degree Days 0 0  
Month to date cooling degree days 0 0  
Year to date cooling degree days 0 0  
Moisture
Dew Point 35°F   
Average Humidity 77    
Maximum Humidity 92    
Minimum Humidity 61    
Precipitation
Precipitation T in 0.17 in 1.98 in (1999)
Month to date precipitation 2.41 4.55  
Year to date precipitation 6.32 12.39  
Wind
Wind Speed 11 mph   
Max Wind Speed 24 mph   
Max Gust Speed 30 mph   
Visibility 10 miles   
Events Rain   

Key: T is trace of precipitation, MM is missing value
Source: NWS Daily Summary
Time(PST)TemperatureDew PointHumidity Pressure Visibility Wind DirectionWind SpeedGust SpeedPrecipitationEvents Conditions
12:54 AM 39.0°F 35.1°F 86% 30.40 in 10.0 miles South 10.4 mph - N/A   Overcast
1:54 AM 39.0°F 35.1°F 86% 30.41 in 10.0 miles SSW 9.2 mph - N/A   Overcast
2:54 AM 37.9°F 35.1°F 89% 30.40 in 10.0 miles SSW 4.6 mph - N/A   Overcast
3:54 AM 39.0°F 35.1°F 86% 30.39 in 9.0 miles SSW 6.9 mph - N/A   Overcast
4:54 AM 39.2°F 35.6°F 87% 30.39 in 10.0 miles SSW 8.1 mph - N/A   Overcast
5:54 AM 37.9°F 35.1°F 89% 30.38 in 10.0 miles WSW 5.8 mph - N/A   Overcast
6:54 AM 37.9°F 36.0°F 93% 30.38 in 9.0 miles WSW 3.5 mph - N/A   Overcast
7:54 AM 37.9°F 36.0°F 93% 30.37 in 8.0 miles West 3.5 mph - 0.00 in   Overcast
8:54 AM 41.0°F 36.0°F 82% 30.36 in 9.0 miles SSW 5.8 mph - N/A   Overcast
9:54 AM 42.1°F 35.1°F 76% 30.35 in 10.0 miles SSW 15.0 mph 23.0 mph N/A   Overcast
10:54 AM 45.0°F 36.0°F 71% 30.33 in 10.0 miles South 13.8 mph - N/A   Overcast
11:54 AM 46.0°F 37.0°F 71% 30.31 in 10.0 miles SSW 19.6 mph 25.3 mph 0.00 in   Overcast
12:54 PM 46.9°F 36.0°F 66% 30.28 in 10.0 miles South 17.3 mph - N/A   Overcast
1:54 PM 48.0°F 36.0°F 63% 30.25 in 10.0 miles South 19.6 mph 29.9 mph N/A   Overcast
2:54 PM 48.0°F 35.1°F 61% 30.23 in 10.0 miles SSW 12.7 mph 24.2 mph N/A   Overcast
3:54 PM 46.9°F 35.1°F 63% 30.21 in 10.0 miles SSW 15.0 mph 26.5 mph N/A   Overcast
4:54 PM 46.9°F 35.1°F 63% 30.19 in 10.0 miles South 12.7 mph - N/A   Overcast
5:54 PM 45.0°F 35.1°F 68% 30.15 in 10.0 miles South 11.5 mph - N/A   Overcast
6:54 PM 45.0°F 35.1°F 68% 30.12 in 10.0 miles South 11.5 mph - N/A   Overcast
7:54 PM 45.0°F 34.0°F 65% 30.09 in 10.0 miles South 10.4 mph - N/A   Overcast
8:54 PM 45.0°F 32.0°F 60% 30.06 in 10.0 miles South 12.7 mph - N/A   Overcast
9:54 PM 45.0°F 32.0°F 60% 30.03 in 10.0 miles SSW 12.7 mph - N/A   Overcast
10:54 PM 45.0°F 32.0°F 60% 29.99 in 10.0 miles South 13.8 mph - N/A   Overcast
11:54 PM 45.0°F 35.1°F 68% 29.96 in 10.0 miles SSW 16.1 mph 21.9 mph 0.00 in Rain Light Rain
Moon Phase
Feb. 24 Feb. 25 Mar. 04 Mar. 11 Mar. 19
Sunrise:06:59 AM (PST) Moon Rise:05:07 PM (PST)
Sunset:05:50 PM (PST) Moon Set:06:01 AM (PST)

Copyright © 2014 The Weather Underground, Inc.